011  
ASUS46 KSEW 291510  
RWRWA  
 
WASHINGTON REGIONAL WEATHER ROUNDUP  
NATIONAL WEATHER SERVICE SEATTLE WA  
800 AM PDT MON MAY 29 2017  
 
NOTE:"FAIR" INDICATES FEW OR NO CLOUDS BELOW 12,000 FEET WITH NO  
SIGNIFICANT WEATHER AND/OR S TO VISIBILITY
.  
 
WAZ507-509-555>559-291600-  
SEATTLE, TACOMA, EVERETT, AND VICINITY  
 
CITY SKY/WX TMP DP RH WIND PRES REMARKS
 
EVERETT CLOUDY 54 52 93 S3 30.08F  
BOEING FIELD CLOUDY 54 53 97 VRB3 30.08F  
RENTON CLOUDY 55 52 89 SW5 30.08F  
SEATAC AIRPORT FOG 53 51 93 SW7 30.08F VSB 1/2  
JBLM-MCCHORD CLOUDY 52 52 99 S3 30.08F  
PUYALLUP N/A 54 54 100 CALM 30.08S  
BREMERTON CLOUDY 49 49 100 S5 30.08F FOG  
JBLM-FT LEWIS NOT AVBL  
TACOMA NARROWS CLOUDY 51 50 96 W5 30.08F  

 
 
WAZ001-503-506-510-514-515-291600-  
NORTH INTERIOR  
 
CITY SKY/WX TMP DP RH WIND PRES REMARKS
 
BELLINGHAM SUNNY 55 51 86 S12G20 30.06S  
FRIDAY HARBOR PTSUNNY 54 51 90 S7 30.08R  
EASTSOUND SUNNY 55 50 82 S14G21 30.05S  
PORT ANGELES CLOUDY 51 50 96 NW5 30.08S  
EDIZ HOOK CLOUDY 51 48 89 W10 30.08S  
PORT TOWNSEND CLOUDY 54 52 94 SE3 30.08F  
NAS WHIDBEY CLOUDY 54 48 80 W7 30.12S  
ARLINGTON MOSUNNY 54 45 71 CALM 30.10S  
BURLINGTON CLOUDY 52 50 93 CALM 30.09S  

 
 
WAZ020-022-039-040-504-511-512-291600-  
SOUTHWEST INTERIOR  
 
CITY SKY/WX TMP DP RH WIND PRES REMARKS
 
SHELTON CLOUDY 52 49 89 SW7 30.06F  
OLYMPIA CLOUDY 52 50 93 S3 30.08F FOG  
CHEHALIS CLOUDY 54 52 94 NE5 30.09S  
KELSO CLOUDY 54 51 90 W6 30.08F  
VANCOUVER CLOUDY 56 52 86 VRB5 30.07S  
SCAPPOOSE, OR CLOUDY 55 50 83 N8 30.06F  
PORTLAND, OR CLOUDY 55 51 86 VRB3 30.07S  

 
 
WAZ021-516-517-291600-  
WASHINGTON COAST  
 
CITY SKY/WX TMP DP RH WIND PRES REMARKS
 
FORKS CLOUDY 51 49 92 N5 30.09S  
HOQUIAM CLOUDY 52 51 97 NW6 30.09F  
ASTORIA, OR CLOUDY 52 49 89 NW5 30.08F  

 
 
WAZ019-023-024-040-567>569-291600-  
CASCADE MOUNTAINS AND COLUMBIA GORGE  
 
CITY SKY/WX TMP DP RH WIND PRES REMARKS
 
STAMPEDE PASS SUNNY 64 44 48 NE3 30.14F  
TROUTDALE, OR CLOUDY 56 52 86 NW3 30.07S  
THE DALLES, OR SUNNY 66 56 70 NW6 30.00F  

 
 
WAZ026-027-041>044-520-521-291600-  
EAST SLOPES  
 
CITY SKY/WX TMP DP RH WIND PRES REMARKS
 
OMAK SUNNY 66 48 52 N6 30.07S  
WENATCHEE SUNNY 64 47 53 W9 30.06S  
ELLENSBURG SUNNY 64 50 60 CALM 30.07S  
YAKIMA SUNNY 70 52 52 W7 30.04F  
SUNNYSIDE ARPT SUNNY 65 50 58 CALM 30.02R  

 
 
WAZ028-034-035-291600-  
COLUMBIA BASIN  
 
CITY SKY/WX TMP DP RH WIND PRES REMARKS
 
EPHRATA SUNNY 74 45 35 N8 30.03F  
MOSES LAKE SUNNY 71 49 45 N9 30.04S  
PASCO SUNNY 65 52 62 CALM 30.01S  
HERMISTON, OR SUNNY 67 48 50 CALM 30.00S  

 
 
WAZ036>038-291600-  
NORTHEAST WASHINGTON  
 
CITY SKY/WX TMP DP RH WIND PRES REMARKS
 
SPOKANE GEIGER SUNNY 65 46 50 NE13 30.09S  
SPOKANE FELTS SUNNY 66 51 58 VRB3 30.09F  
FAIRCHILD AFB SUNNY 65 48 53 NE13 30.09S  
COEURDALENE,ID SUNNY 64 50 60 NE9 30.11S  
DEER PARK SUNNY 67 49 52 NE5 30.10S  

 
 
WAZ029>033-291600-  
SOUTHEAST WASHINGTON  
 
CITY SKY/WX TMP DP RH WIND PRES REMARKS
 
PULLMAN SUNNY 68 45 43 E14 30.10S  
LEWISTON, ID SUNNY 65 49 56 E6 30.07S  
WALLA WALLA SUNNY 71 48 43 N3 30.01S  
PENDLETON, OR SUNNY 67 47 48 SE5 30.02S  

 
 
 
CLICK HERE TO GO TO PREVIOUS BULLETINS.

The Nexlab WA Page Main Text Page